Oxford, NC

8:31 AM EST on December 14, 2019 (GMT -0500)
Henderson-Oxford

Weather History for KHNZ - November, 2019

Change the Weather History Date:

Tuesday, November 12, 2019

  Actual Average (WUND) Record (WUND)
Temperature  
Mean Temperature 38 °F -  
Max Temperature 51 °F - - (-1)
Min Temperature 24 °F - - (-1)
Degree Days  
Heating Degree Days 28    
Moisture  
Dew Point 33 °F    
Average Humidity 80    
Maximum Humidity 99    
Minimum Humidity 55    
Precipitation  
Precipitation 0.67 in - - ()
Sea Level Pressure  
Sea Level Pressure 30.02 in    
Wind  
Wind Speed 6 mph (NW)    
Max Wind Speed 13 mph    
Max Gust Speed 25 mph    
Visibility 9 miles    
Events Rain    
Averages and records for this station are not official NWS values.
T = Trace of Precipitation, MM = Missing Value Source: NWS Daily Summary

Daily Weather History Graph

Daily Weather History Graph

Search for Another Location

Airport or City:

Astronomy

Nov. 12, 2019 Rise Set
Actual Time 6:48 AM EST 5:08 PM EST
Civil Twilight 6:20 AM EST 5:35 PM EST
Nautical Twilight 5:49 AM EST 6:06 PM EST
Astronomical Twilight 5:19 AM EST 6:36 PM EST
Moon 5:33 PM EST (11/12) 6:39 AM EST (11/12)
Length of Visible Light 11h 14m
Length of Day
10h 19m
Full, 100% of the Moon is Illuminated
Nov 12
Full
Nov 19
Last Quarter
Nov 26
New
Dec 4
First Quarter
Dec 12
Full

Hourly Weather History & Observations

Time (EST) Temp. Windchill Dew Point Humidity Pressure Visibility Wind Dir Wind Speed Gust Speed Precip Events Conditions
12:15 AM 51.1 °F - 35.6 °F 55% 29.95 in 10.0 mi SW 11.5 mph - N/A   Clear
12:35 AM 51.4 °F - 35.6 °F 55% 29.94 in 10.0 mi SW 11.5 mph 16.1 mph N/A   Clear
1:15 AM 51.3 °F - 36.0 °F 56% 29.93 in 10.0 mi SSW 10.4 mph - N/A   Clear
1:35 AM 51.3 °F - 36.1 °F 56% 29.93 in 10.0 mi SW 10.4 mph - N/A   Clear
1:55 AM 51.1 °F - 36.3 °F 57% 29.91 in 10.0 mi SW 10.4 mph - N/A   Clear
2:15 AM 50.9 °F - 36.5 °F 58% 29.91 in 10.0 mi SSW 6.9 mph - N/A   Clear
2:35 AM 51.1 °F - 36.5 °F 57% 29.91 in 10.0 mi SW 6.9 mph - N/A   Clear
2:55 AM 51.3 °F - 36.7 °F 57% 29.91 in 10.0 mi SSW 9.2 mph - N/A   Clear
3:35 AM 51.1 °F - 37.0 °F 59% 29.89 in 10.0 mi SW 6.9 mph - N/A   Clear
3:55 AM 50.9 °F - 37.4 °F 60% 29.89 in 10.0 mi SSW 8.1 mph - N/A   Mostly Cloudy
4:15 AM 50.7 °F - 37.6 °F 61% 29.89 in 10.0 mi Calm Calm - N/A   Mostly Cloudy
4:35 AM 50.4 °F - 38.1 °F 63% 29.89 in 10.0 mi Calm Calm - N/A Rain Light Rain
4:55 AM 50.0 °F - 39.0 °F 66% 29.89 in 10.0 mi Calm Calm - N/A Rain Light Rain
5:15 AM 49.1 °F - 40.1 °F 71% 29.88 in 10.0 mi Calm Calm - N/A Rain Rain
5:35 AM 48.2 °F - 41.9 °F 79% 29.88 in 10.0 mi Calm Calm - N/A   Light Drizzle
5:55 AM 48.0 °F - 42.1 °F 80% 29.88 in 10.0 mi Calm Calm - N/A   Scattered Clouds
6:15 AM 47.5 °F - 42.4 °F 83% 29.87 in 10.0 mi Calm Calm - N/A   Light Drizzle
6:35 AM 47.5 °F - 42.8 °F 84% 29.86 in 10.0 mi Calm Calm - N/A   Scattered Clouds
6:55 AM 47.3 °F - 43.2 °F 86% 29.87 in 10.0 mi Calm Calm - N/A Rain Light Rain
7:15 AM 47.1 °F - 43.9 °F 88% 29.87 in 10.0 mi Calm Calm - N/A Rain Light Rain
7:55 AM 47.3 °F - 43.9 °F 88% 29.88 in 10.0 mi Calm Calm - N/A Rain Light Rain
8:15 AM 46.8 °F - 44.2 °F 91% 29.90 in 7.0 mi Calm Calm - 0.01 in Rain Light Rain
8:35 AM 46.8 °F - 44.6 °F 92% 29.91 in 7.0 mi Calm Calm - 0.02 in Rain Rain
8:55 AM 47.3 °F - 45.7 °F 94% 29.92 in 5.0 mi NW 10.4 mph 16.1 mph 0.04 in Rain Rain
9:15 AM 46.4 °F 41.1 °F 44.8 °F 94% 29.94 in 5.0 mi NW 11.5 mph 16.1 mph 0.03 in Rain Rain
9:35 AM 43.3 °F 36.8 °F 41.2 °F 92% 29.95 in 7.0 mi NNW 12.7 mph 25.3 mph 0.10 in Rain Rain
9:55 AM 41.4 °F 35.7 °F 38.7 °F 90% 29.97 in 7.0 mi NW 9.2 mph 18.4 mph 0.13 in Rain Rain
10:15 AM 40.1 °F 34.1 °F 37.9 °F 92% 29.98 in 10.0 mi NW 9.2 mph 18.4 mph 0.03 in Rain Rain
10:35 AM 39.6 °F 33.5 °F 37.9 °F 94% 29.97 in 7.0 mi NNW 9.2 mph 16.1 mph 0.07 in Rain Rain
10:55 AM 38.7 °F 32.9 °F 37.4 °F 95% 29.98 in 5.0 mi NW 8.1 mph - 0.12 in Rain Rain
11:15 AM 37.8 °F 31.8 °F 36.5 °F 95% 29.99 in 7.0 mi NNW 8.1 mph - 0.05 in Rain Rain
11:35 AM 37.4 °F - 36.1 °F 95% 29.99 in 7.0 mi Calm Calm - 0.08 in Rain Rain
11:55 AM 37.0 °F 32.4 °F 35.6 °F 95% 29.99 in 10.0 mi NNW 5.8 mph - 0.11 in Rain Rain
12:15 PM 36.7 °F 30.5 °F 35.6 °F 96% 29.99 in 5.0 mi NW 8.1 mph - 0.03 in Rain Rain
12:35 PM 36.0 °F 28.5 °F 34.7 °F 95% 29.97 in 4.0 mi NW 10.4 mph 18.4 mph 0.06 in Rain Rain
12:55 PM 35.6 °F 28.6 °F 34.0 °F 94% 30.00 in 3.0 mi NNW 9.2 mph 20.7 mph 0.09 in Rain Rain
1:15 PM 35.6 °F 29.9 °F 34.2 °F 94% 29.99 in 4.0 mi North 6.9 mph 17.3 mph 0.03 in Rain Rain
1:35 PM 34.9 °F 27.1 °F 33.1 °F 93% 29.99 in 7.0 mi North 10.4 mph 21.9 mph 0.05 in Rain Light Rain
1:55 PM 34.2 °F 25.7 °F 32.7 °F 94% 30.00 in 10.0 mi NNW 11.5 mph 18.4 mph 0.07 in Rain Light Rain
2:55 PM 32.2 °F 27.7 °F 31.5 °F 97% 30.03 in 10.0 mi NNW 4.6 mph - 0.05 in   Overcast
3:15 PM 32.9 °F - 32.0 °F 96% 30.04 in 10.0 mi Calm Calm - 0.01 in   Light Drizzle
3:35 PM 32.9 °F - 32.0 °F 96% 30.03 in 10.0 mi Calm Calm - 0.02 in   Overcast
3:55 PM 33.1 °F - 32.2 °F 96% 30.03 in 10.0 mi Calm Calm - 0.02 in   Overcast
4:15 PM 33.6 °F - 32.5 °F 96% 30.05 in 10.0 mi Calm Calm - 0.01 in   Overcast
4:35 PM 33.8 °F - 32.9 °F 96% 30.05 in 10.0 mi Calm Calm - 0.02 in   Mostly Cloudy
4:55 PM 33.8 °F - 32.5 °F 95% 30.05 in 10.0 mi Calm Calm - 0.02 in   Mostly Cloudy
5:15 PM 33.1 °F - 32.0 °F 96% 30.06 in 10.0 mi Calm Calm - 0.01 in   Mostly Cloudy
5:35 PM 32.5 °F - 32.0 °F 98% 30.08 in 10.0 mi Calm Calm - 0.01 in   Scattered Clouds
5:55 PM 32.4 °F - 32.0 °F 99% 30.09 in 10.0 mi Calm Calm - 0.01 in   Mostly Cloudy
6:15 PM 32.2 °F - 32.0 °F 99% 30.10 in 10.0 mi Calm Calm - N/A   Mostly Cloudy
6:35 PM 32.0 °F - 31.8 °F 99% 30.11 in 10.0 mi Calm Calm - N/A   Scattered Clouds
6:55 PM 31.3 °F 22.7 °F 27.1 °F 85% 30.13 in 10.0 mi NNW 10.4 mph 16.1 mph 0.01 in   Clear
7:15 PM 30.2 °F 22.6 °F 21.9 °F 71% 30.14 in 10.0 mi NNW 8.1 mph 18.4 mph N/A   Clear
7:35 PM 29.7 °F 21.3 °F 22.3 °F 74% 30.15 in 10.0 mi NW 9.2 mph - N/A   Scattered Clouds
7:55 PM 29.1 °F 20.6 °F 21.0 °F 72% 30.17 in 10.0 mi NW 9.2 mph - N/A   Scattered Clouds
8:15 PM 29.3 °F 20.2 °F 19.4 °F 67% 30.17 in 10.0 mi NW 10.4 mph 16.1 mph N/A   Mostly Cloudy
8:35 PM 29.1 °F 20.6 °F 18.3 °F 64% 30.19 in 10.0 mi NNW 9.2 mph - N/A   Overcast
8:55 PM 28.4 °F 19.7 °F 17.4 °F 63% 30.20 in 10.0 mi NNW 9.2 mph - N/A   Scattered Clouds
9:15 PM 27.5 °F 19.3 °F 17.1 °F 65% 30.21 in 10.0 mi NNW 8.1 mph - N/A   Scattered Clouds
9:35 PM 27.5 °F 19.3 °F 16.5 °F 63% 30.23 in 10.0 mi NNW 8.1 mph - N/A   Clear
9:55 PM 27.0 °F 20.5 °F 16.2 °F 64% 30.24 in 10.0 mi NNW 5.8 mph - N/A   Clear
10:15 PM 26.6 °F 18.2 °F 15.8 °F 64% 30.25 in 10.0 mi NNW 8.1 mph - N/A   Clear
10:35 PM 26.2 °F 20.7 °F 15.8 °F 65% 30.25 in 10.0 mi North 4.6 mph - N/A   Clear
10:55 PM 25.7 °F - 15.6 °F 66% 30.26 in 10.0 mi Calm Calm - N/A   Clear
11:15 PM 25.2 °F - 15.6 °F 67% 30.27 in 10.0 mi Calm Calm - N/A   Clear
11:35 PM 24.8 °F 17.9 °F 15.6 °F 68% 30.27 in 10.0 mi NNW 5.8 mph - N/A   Clear
11:55 PM 24.6 °F 17.7 °F 15.3 °F 68% 30.27 in 10.0 mi NNW 5.8 mph - N/A   Clear